Location: Faicchio
(41.2833°N, 14.4833°E)
Time: 06:28:18
(UTC+00:00)

ATLAS 3B R/B - Pass Details

Date: 15 June 2025
Orbit: 935 x 1258 km, 63.8° (Epoch: 16 July)

Event Time Altitude Azimuth Distance (km) Brightness Sun altitude
Rises 00:55:05 0° 323° (NW) 4,217 6.2 -20.3°
Reaches altitude 10° 00:57:56 10° 322° (NW) 3,239 5.5 -20.1°
Maximum altitude 01:05:43 69° 241° (WSW) 1,301 2.9 -19.4°
Drops below altitude 10° 01:13:05 10° 160° (SSE) 3,071 4.7 -18.7°
Enters shadow 01:13:18 - 160° (SSE) 3,144 4.8 -18.6°
